Location: Unspecified
(50.7693°N, 0.0000°E)
Time: 07:41:42
(UTC+00:00)

Transit 2A - Pass Details

Date: 18 August 2020
Orbit: 591 x 967 km, 66.7° (Epoch: 20 September)

Event Time Altitude Azimuth Distance (km) Brightness Sun altitude
Rises 23:09:14 0° 308° (NW) 3,640 10.3 -25.4°
Reaches altitude 10° 23:12:35 10° 325° (NW) 2,713 9.7 -25.6°
Maximum altitude 23:17:09 20° 11° (N) 2,080 8.9 -25.7°
Drops below altitude 10° 23:21:41 10° 57° (ENE) 2,687 9.0 -25.9°
Sets 23:24:59 0° 74° (ENE) 3,596 9.5 -26.0°
